Location: Gorze? G�rny
(49.8500°N, 19.5000°E)
Time: 13:02:00
(UTC+00:00)

Cosmos 2369 Rocket - Pass Details

Date: 13 May 2021
Orbit: 827 x 854 km, 71.0° (Epoch: 22 June)

Event Time Altitude Azimuth Distance (km) Brightness Sun altitude
Exits shadow 21:46:10 40° 185° (S) 1,216 2.5 -20.6°
Maximum altitude 21:48:11 70° 114° (ESE) 893 2.1 -20.6°
Drops below altitude 10° 21:53:49 10° 33° (NNE) 2,469 5.2 -20.8°
Sets 21:56:17 0° 31° (NNE) 3,413 6.1 -20.9°
